ECMWFFLT1_500_spd_132.txt.gz
Wind_Speed
25 25 22 21 21 21 21 21 20 18 18 18 16 16 16 15 14 14 13 13 14 14 14 14 14 14 14 15 15 15 14 14 14 13 13 12 11 10 9 8 7 6 5 5 5 4 4 4 5 6 7 8 8 8 7 7 7 8 8 9 9 8 8
26 25 24 22 22 22 22 22 22 20 19 18 17 17 17 17 16 15 14 14 13 14 14 14 15 14 14 13 14 15 15 14 13 12 12 12 12 11 10 9 8 7 6 6 5 4 4 4 5 6 7 8 8 8 7 7 6 6 6 6 6 6 7
27 26 24 23 22 22 23 22 21 21 20 19 18 18 18 18 18 16 15 15 14 13 13 14 14 14 14 13 13 14 14 14 13 13 12 12 12 11 11 10 9 7 6 6 5 5 6 6 6 7 7 8 8 8 7 7 6 6 5 5 4 4 4
27 26 25 24 23 23 23 23 22 21 21 20 20 20 20 20 19 18 17 15 15 14 13 13 14 14 14 15 14 14 14 14 13 13 12 12 11 11 11 10 9 8 7 6 6 6 7 7 7 7 7 7 7 7 6 6 6 5 5 4 3 3 3
27 27 25 25 25 24 23 23 22 22 21 20 20 21 21 21 20 19 18 17 16 15 14 13 13 13 14 15 15 14 14 14 14 14 12 11 11 11 10 10 9 9 7 7 7 7 8 8 8 8 7 7 7 6 6 5 5 5 4 4 3 3 2
28 27 26 26 26 25 23 23 22 22 22 21 20 21 21 21 20 20 19 18 18 17 15 14 14 13 14 14 15 15 15 15 15 14 13 12 11 10 10 10 10 9 8 7 7 8 8 8 8 8 8 7 7 6 5 5 5 4 4 4 4 3 3
28 26 26 26 26 26 24 24 23 23 23 22 21 21 21 21 21 21 20 19 19 18 17 17 15 14 14 14 14 15 16 16 15 15 14 13 12 11 11 10 10 9 9 9 8 9 9 9 9 9 9 8 7 6 6 5 5 4 4 4 4 4 4
29 27 27 26 26 26 26 25 24 23 23 22 21 21 21 21 21 22 21 21 20 19 19 18 17 16 14 14 14 15 15 16 16 15 15 14 14 13 12 11 11 10 11 11 10 10 10 10 10 10 9 9 8 7 7 6 5 5 5 5 5 5 5
32 29 28 28 28 27 27 26 25 24 23 22 21 21 21 21 21 22 22 22 21 21 20 19 18 17 16 16 15 15 15 16 16 16 16 15 15 15 14 13 12 12 12 12 12 12 12 12 11 11 10 10 9 9 8 7 6 6 6 6 6 7 6
32 32 30 29 29 29 27 27 26 24 23 22 21 22 22 22 22 22 22 22 22 22 22 21 20 19 18 18 17 17 16 16 16 16 16 16 16 15 15 15 14 14 14 14 13 13 13 12 12 12 12 11 11 10 9 8 7 7 7 7 7 8 8
32 35 34 30 29 29 28 26 25 23 22 21 21 22 22 22 22 21 21 22 22 23 23 22 22 21 20 20 19 19 18 17 17 17 17 17 16 16 16 16 16 16 15 15 15 14 14 14 14 14 13 13 12 12 11 10 9 8 8 8 8 8 9
31 37 36 32 30 28 27 26 25 23 23 22 21 21 22 22 22 21 21 22 23 23 23 23 22 22 22 21 21 21 20 19 18 18 17 17 17 16 16 16 16 16 17 17 16 15 16 16 15 15 15 15 14 13 12 11 10 10 9 9 8 9 9
33 39 36 34 32 28 27 26 25 24 23 23 22 21 21 22 22 21 21 22 23 23 23 23 23 23 23 23 22 22 22 21 21 20 19 18 17 17 16 16 16 16 16 17 17 16 17 17 17 17 16 16 15 15 14 13 12 11 11 10 9 9 10
31 40 37 35 33 28 27 28 28 26 25 25 24 23 22 21 22 22 22 22 22 22 22 22 22 22 23 23 23 23 23 23 23 22 21 20 19 18 17 17 16 16 16 16 16 16 17 17 17 17 17 16 16 15 14 13 13 13 12 12 11 11 11
21 29 30 31 31 29 27 28 29 29 28 27 24 23 23 23 22 22 21 21 20 19 20 20 20 20 21 22 23 24 24 24 24 24 23 22 21 20 20 19 18 17 17 17 17 17 17 17 17 17 17 16 16 15 15 14 14 14 15 14 14 14 13
15 18 21 24 26 27 27 29 32 31 31 28 25 24 24 23 23 22 22 21 19 20 20 20 20 21 20 21 22 23 24 24 24 24 23 23 23 23 22 21 20 19 18 18 18 17 17 17 17 17 17 17 17 15 15 16 17 17 17 17 17 17 16
18 19 21 22 24 25 25 29 33 34 33 31 28 27 26 25 23 23 23 22 21 22 22 22 23 24 23 22 22 22 22 23 23 24 24 24 24 24 22 21 21 20 20 20 19 19 18 19 19 19 19 19 18 17 17 19 20 20 20 19 19 20 20
19 21 22 22 24 25 24 26 29 32 35 34 32 30 28 26 24 23 23 23 23 23 24 24 25 26 25 25 24 24 23 23 24 24 24 24 24 24 23 22 22 22 22 21 20 20 20 20 21 21 21 20 20 20 21 22 22 22 22 22 22 22 22
17 17 18 19 21 24 25 25 27 30 34 35 34 33 31 29 27 26 25 25 25 25 24 24 24 25 26 27 28 27 27 25 24 24 24 25 25 25 24 23 23 23 23 23 23 22 22 22 22 22 22 22 21 21 22 24 24 23 23 23 24 24 24
17 17 16 17 20 23 25 27 29 32 34 34 34 35 34 33 31 28 28 29 28 25 24 23 24 26 29 30 28 27 26 25 24 24 25 26 26 26 26 25 25 25 24 25 25 25 24 23 23 23 23 23 23 23 24 25 25 25 24 24 25 25 25
19 18 15 15 17 19 22 26 30 32 32 34 35 35 34 34 33 30 29 29 28 25 25 26 27 29 31 29 26 25 26 26 25 25 25 26 26 27 27 27 26 25 26 26 27 26 26 25 25 25 24 24 25 25 26 26 27 27 26 26 26 26 26
20 19 18 18 17 17 18 22 28 31 33 35 35 33 32 32 32 31 30 28 28 29 28 28 28 29 30 28 26 26 27 28 27 27 26 26 27 28 28 28 27 25 26 27 27 26 26 26 26 26 25 25 25 26 27 27 28 28 27 26 26 26 27
23 21 20 19 18 16 16 17 19 24 29 32 31 30 32 32 31 32 31 28 27 30 29 28 28 29 31 31 30 29 30 31 30 29 27 28 30 31 30 29 28 27 27 27 27 27 27 26 26 26 25 25 26 26 27 28 28 29 28 28 27 26 27
23 22 21 20 18 16 16 15 13 15 19 23 24 25 28 29 29 28 27 23 22 24 25 25 26 27 30 34 35 34 34 33 30 28 28 28 30 33 33 32 31 30 30 29 28 28 28 28 28 27 26 26 26 27 29 30 30 30 30 30 29 28 28
20 19 17 18 19 19 17 16 16 17 18 19 19 20 22 23 23 22 21 20 19 20 22 23 23 23 25 29 33 35 36 34 31 29 29 30 32 35 37 36 35 34 33 31 31 30 30 30 30 30 30 30 29 29 30 32 32 33 32 32 31 30 30
20 19 17 16 18 20 19 18 18 20 21 22 23 24 24 24 23 22 21 21 20 21 22 22 23 23 22 22 24 28 30 30 28 25 27 30 34 39 40 38 37 37 34 33 34 33 32 31 32 33 33 33 32 31 32 33 34 35 34 33 31 31 33
22 23 23 21 20 19 20 21 20 19 20 22 24 24 24 23 22 22 21 21 20 21 22 22 23 23 22 21 21 21 23 25 24 23 24 26 29 35 40 40 38 37 36 35 36 35 33 34 35 35 35 35 34 32 32 35 37 37 36 36 34 34 35
25 25 25 25 24 22 20 21 22 20 18 20 22 24 23 21 20 21 22 22 21 20 20 20 21 22 22 22 22 22 22 23 23 23 23 23 22 23 29 33 34 34 34 36 36 35 35 34 35 36 36 35 35 35 35 38 39 37 36 36 36 36 37
27 26 25 25 27 26 24 24 25 25 25 25 26 27 27 25 23 24 26 25 23 23 22 21 22 24 25 23 23 24 23 23 23 23 22 23 23 22 22 22 23 25 28 31 33 34 34 33 34 37 38 36 36 39 41 41 40 37 35 36 37 38 38
27 27 26 25 26 26 27 28 30 32 33 32 30 30 32 32 30 29 30 30 29 28 29 28 28 29 29 28 28 28 28 27 27 27 26 26 27 26 25 24 23 22 23 27 30 31 30 29 31 35 38 37 37 41 42 42 41 40 39 40 40 40 40
26 26 25 24 23 23 23 24 26 29 32 33 33 33 33 34 32 31 31 32 31 30 31 32 32 33 32 31 30 31 31 31 30 29 29 29 28 26 25 26 26 25 23 24 27 26 24 23 24 27 30 33 37 41 42 41 41 42 44 44 42 42 42
27 27 26 25 24 23 23 22 23 25 28 31 33 33 32 31 31 31 32 32 33 33 33 33 33 34 33 33 32 32 33 32 30 29 30 31 30 29 28 27 28 28 27 27 29 28 25 25 25 23 23 26 31 35 37 37 37 39 41 44 44 44 43
28 28 29 30 30 29 29 28 27 27 28 29 31 32 32 31 31 31 33 34 35 36 36 35 35 35 34 33 32 32 33 33 31 30 32 33 32 31 31 31 31 31 31 31 32 33 33 33 31 28 26 26 26 26 26 27 27 28 29 30 34 38 41
30 29 29 31 33 33 33 31 30 30 30 31 32 33 33 34 34 35 35 35 36 37 37 37 37 36 35 34 33 32 33 33 32 32 33 35 34 32 31 31 31 32 33 33 34 34 35 35 35 34 32 30 28 27 27 27 27 26 25 24 24 26 30
33 32 30 30 31 32 33 33 31 30 30 31 32 33 34 35 36 37 37 37 37 37 37 37 37 36 36 36 35 34 33 34 33 33 34 35 35 35 34 33 32 33 34 34 33 33 33 33 34 33 32 31 31 33 35 35 33 31 30 30 28 27 28
33 33 33 32 31 30 31 33 33 33 32 32 33 33 34 35 35 36 37 38 38 38 38 37 37 37 37 37 38 37 36 36 36 36 36 37 36 36 35 36 35 35 35 35 35 35 34 34 33 33 32 30 31 34 37 39 40 40 39 38 36 36 36
32 33 34 34 33 32 31 31 32 33 34 34 33 34 34 35 36 36 37 38 39 39 39 39 39 39 38 38 39 39 40 41 41 41 41 41 40 38 37 37 37 37 37 37 37 37 37 36 35 35 33 32 32 34 36 37 39 40 40 40 40 40 41
28 30 32 34 35 35 34 33 32 33 33 34 34 34 34 35 36 37 37 38 39 40 41 41 42 41 40 40 39 39 40 42 44 45 46 46 45 44 42 41 40 39 38 38 38 38 38 38 38 37 36 35 35 35 35 36 38 39 39 40 41 42 42

ECMWFFLT1_500_spd_135.txt.gz
Wind_Speed
26 25 25 24 22 22 23 23 23 22 22 23 22 21 21 21 21 20 19 18 18 18 19 19 19 19 19 19 18 17 16 15 15 14 13 12 12 11 10 9 9 8 8 8 7 7 6 6 6 8 9 9 9 9 9 9 8 8 8 8 7 7 7
25 25 25 24 23 23 24 24 24 23 22 22 22 22 21 21 21 21 21 20 18 17 18 18 18 19 19 19 18 18 17 16 16 15 15 14 13 13 12 11 10 9 9 9 9 8 7 7 7 8 9 9 8 8 8 8 8 7 7 7 7 6 6
25 24 24 24 23 23 24 24 25 25 23 22 22 22 21 21 22 22 21 21 19 18 17 17 17 17 18 18 18 18 17 17 17 17 16 15 14 14 13 12 11 11 10 10 9 9 8 8 8 8 9 8 8 7 7 7 7 6 6 6 5 5 5
25 24 24 24 24 25 25 25 25 25 24 23 22 23 23 23 22 22 21 21 20 20 19 18 18 17 16 17 17 17 17 17 16 16 16 16 16 15 14 14 13 12 10 9 9 9 9 9 9 9 9 8 8 7 7 6 6 5 5 5 4 4 4
26 25 25 25 25 25 25 25 26 26 25 24 24 23 23 23 22 22 22 21 21 20 19 18 18 17 16 16 16 17 17 16 16 16 16 16 16 15 15 14 13 12 10 9 9 8 9 9 10 10 9 9 8 7 7 6 5 5 4 4 4 4 3
29 25 24 25 25 24 24 25 26 26 26 25 25 24 23 22 21 22 22 22 22 21 19 18 17 17 17 17 17 17 17 17 17 16 16 15 15 14 14 13 12 11 10 10 9 9 9 9 10 10 10 10 9 8 7 6 6 5 4 4 4 3 3
31 25 24 25 25 24 25 26 27 26 26 27 26 25 23 22 22 22 22 22 22 21 21 20 19 18 18 17 17 17 17 18 18 18 17 16 15 14 13 13 13 12 11 10 10 9 9 10 10 10 10 10 10 9 8 7 7 6 6 5 5 4 4
32 28 25 26 26 25 26 27 27 27 26 26 26 25 23 23 22 22 22 22 22 22 22 21 20 20 19 18 17 17 17 17 18 18 17 17 16 15 14 13 13 12 12 11 10 10 10 10 11 11 11 10 10 10 9 8 8 7 7 7 7 6 6
33 30 28 28 28 28 27 28 27 27 26 25 25 24 23 23 22 22 22 22 21 22 22 22 21 20 19 18 17 17 17 17 17 17 17 17 16 15 15 14 13 12 12 12 11 12 12 11 11 11 11 11 10 10 9 9 9 8 8 8 8 8 8
34 32 31 30 30 30 30 29 28 27 26 25 24 23 22 21 22 23 23 22 22 22 22 22 21 20 19 18 18 17 16 16 16 17 17 17 17 16 15 14 14 13 12 12 12 12 12 12 12 12 12 12 11 10 10 9 9 9 9 9 9 9 9
34 32 31 30 30 30 30 29 28 27 26 25 24 23 22 22 22 22 22 22 23 23 22 22 21 21 20 20 19 18 17 16 16 16 16 17 17 17 16 15 14 14 13 13 13 13 13 13 13 13 13 12 12 11 11 11 11 10 10 9 9 9 9
33 33 32 31 30 29 29 28 28 28 27 26 25 24 23 23 22 22 22 23 24 24 23 22 22 22 21 21 20 19 19 18 17 16 16 16 17 17 16 16 15 14 14 14 14 14 14 14 14 14 13 13 13 13 13 13 13 12 11 11 10 10 10
31 34 34 33 31 30 30 29 27 27 27 26 25 25 24 23 22 22 22 22 23 23 23 23 23 23 22 22 22 21 21 20 19 18 18 17 17 17 16 16 15 15 15 15 14 15 15 15 15 15 15 15 15 15 15 15 14 14 13 12 12 12 11
29 32 35 36 34 32 32 31 29 27 26 26 25 24 24 23 22 22 22 22 23 23 23 23 23 23 23 23 23 23 23 22 21 20 19 18 17 17 16 16 16 15 15 14 14 15 16 17 17 16 16 16 17 17 17 16 16 15 15 15 14 14 14
23 27 32 36 37 37 35 33 32 30 28 27 26 25 24 23 22 22 22 22 23 23 23 24 24 23 23 24 24 25 25 25 23 22 21 20 19 18 18 17 16 16 15 15 15 16 16 16 16 16 17 18 18 19 18 18 17 17 17 17 17 17 16
20 23 29 35 38 39 39 36 33 32 31 29 28 27 26 25 24 23 23 23 24 24 24 25 24 24 24 24 26 27 27 27 26 24 23 22 22 22 21 20 19 18 17 17 17 17 16 16 16 16 17 18 19 19 19 19 19 19 19 19 19 18 18
20 21 25 36 41 39 40 40 36 34 33 32 31 30 29 28 26 25 25 25 25 25 25 26 26 27 27 27 28 29 29 29 28 27 25 25 25 24 24 24 23 21 21 20 20 20 19 18 18 18 18 18 19 19 19 20 20 21 21 21 21 21 21
19 15 15 29 42 42 41 41 36 33 32 32 32 32 30 29 28 28 26 25 24 24 24 24 26 27 28 29 30 30 29 30 30 28 27 27 26 26 26 27 26 26 25 25 24 24 23 22 21 21 21 20 19 20 21 22 22 22 22 23 23 23 22
16 13 8 17 33 39 39 38 35 33 32 32 33 33 32 32 31 30 27 25 25 24 24 25 27 28 28 28 28 29 29 29 29 28 27 27 27 27 27 28 28 28 28 28 27 27 26 25 25 24 23 22 22 22 22 22 23 23 23 23 23 23 23
14 14 11 14 23 30 33 34 34 34 34 34 35 34 35 37 36 32 30 29 28 25 25 28 31 29 26 26 28 29 29 29 28 27 27 27 28 29 29 29 29 29 29 29 29 28 28 27 27 26 25 24 23 23 24 24 24 24 24 24 24 24 24
14 14 14 14 17 20 23 26 30 31 32 33 34 34 36 39 39 36 34 33 31 29 28 29 30 29 26 27 30 29 28 28 28 27 27 28 29 31 31 31 31 30 30 30 29 29 29 29 28 28 27 27 26 26 25 25 26 26 25 25 25 25 26
16 15 14 13 14 16 17 20 23 27 29 31 33 34 35 38 40 39 37 35 33 33 34 32 31 30 29 30 32 31 29 29 28 26 27 29 31 32 31 30 31 31 31 31 30 29 29 29 29 29 29 29 28 28 28 27 27 27 27 27 26 26 26
16 17 17 16 15 15 14 15 17 20 24 28 32 34 34 36 39 40 39 37 34 33 34 33 33 34 33 33 35 35 34 33 30 27 28 30 32 33 32 31 31 31 31 31 30 29 29 28 29 29 30 31 30 30 30 29 29 29 29 28 28 28 27
15 16 17 18 18 17 15 15 16 18 20 23 28 32 33 34 37 39 38 37 35 33 34 35 36 36 35 36 37 35 34 34 32 29 29 32 34 35 33 31 31 31 31 31 31 30 29 28 28 29 29 30 31 31 30 29 29 29 29 30 30 29 29
14 14 16 18 19 19 18 17 18 19 20 20 24 29 32 33 35 35 35 35 35 35 36 36 36 36 37 37 35 34 34 35 33 31 31 34 36 35 32 31 32 33 33 33 32 32 31 29 29 31 31 30 30 31 30 30 29 29 29 30 30 30 31
16 15 15 16 18 19 19 20 20 19 19 19 19 22 27 29 31 31 31 32 34 36 37 37 36 37 38 36 31 29 30 32 32 32 34 36 37 36 34 34 34 33 32 33 34 34 33 32 32 34 35 34 32 32 32 32 31 31 31 31 32 32 33
21 19 18 17 17 17 18 20 20 20 20 19 18 17 18 20 22 23 23 25 28 31 32 33 33 34 35 32 26 23 24 26 28 31 35 38 39 38 37 35 34 33 33 35 37 37 36 35 36 37 38 38 36 33 33 34 34 34 35 34 34 34 33
23 22 21 20 19 19 19 19 19 20 21 21 21 20 19 19 19 18 18 19 21 23 24 26 28 28 27 26 23 21 22 23 24 25 29 33 36 37 36 34 31 31 31 32 35 39 40 39 39 38 38 39 38 36 36 38 38 38 38 36 36 36 34
24 24 24 23 22 22 22 22 21 21 22 22 22 22 22 22 22 21 20 19 20 20 21 23 25 26 25 24 22 21 21 22 22 23 23 25 27 30 32 31 29 26 25 24 26 30 35 38 40 39 37 38 39 39 40 42 42 41 39 37 37 36 34
26 25 25 25 24 24 24 23 23 23 24 24 23 22 23 23 22 21 20 20 20 20 20 21 22 24 24 24 22 22 22 21 21 22 22 21 23 27 30 30 28 25 24 25 24 23 24 29 33 36 37 38 40 40 41 41 42 41 40 39 39 39 39
28 27 26 25 26 26 25 25 25 25 25 26 26 25 25 26 26 25 25 24 24 24 24 24 25 26 27 27 27 28 29 27 26 26 25 24 25 27 28 28 27 26 28 29 28 24 23 24 26 29 32 34 34 33 33 33 35 37 39 41 42 42 40
28 28 26 25 25 26 26 26 26 27 27 28 29 29 30 30 30 30 30 29 29 29 29 30 31 32 32 32 32 33 34 33 31 30 29 27 28 30 31 30 30 32 34 34 31 27 25 25 24 25 27 27 26 25 26 26 25 28 33 38 41 40 37
26 27 27 26 25 26 26 26 26 27 28 28 29 30 31 31 31 31 30 30 29 29 29 30 31 31 31 31 31 31 32 32 31 29 30 30 30 32 33 33 32 34 36 35 33 31 30 29 28 29 30 31 31 30 28 26 25 26 27 29 33 37 39
25 25 26 27 27 28 28 29 28 28 28 29 29 29 29 29 29 29 28 28 28 28 29 29 30 30 30 31 31 31 32 32 32 32 32 32 33 33 32 32 33 34 35 34 34 34 35 34 34 35 36 37 37 37 35 32 32 32 30 27 28 32 36
27 27 27 28 29 30 30 31 31 31 31 31 31 31 31 31 30 30 30 31 31 32 32 32 33 33 33 33 34 34 33 33 34 34 34 34 33 33 33 34 35 36 35 35 35 35 36 36 37 39 40 40 40 40 39 37 36 36 35 33 31 32 33
28 28 29 29 30 31 32 32 33 34 34 34 34 34 35 34 34 34 35 35 36 36 36 36 36 36 36 36 36 37 37 36 36 36 35 35 34 34 33 35 38 39 38 38 38 38 38 38 38 39 41 41 41 41 40 39 37 37 37 36 36 37 38
27 28 29 29 30 31 31 32 33 34 35 36 36 37 37 37 37 37 38 38 38 39 39 39 39 39 39 39 38 38 39 39 39 39 38 37 37 36 36 37 39 41 42 41 40 40 39 39 40 40 41 41 41 41 41 41 40 39 38 37 37 39 40
27 27 28 29 31 31 31 32 33 34 35 35 36 37 38 39 39 40 40 40 40 40 41 41 42 42 42 42 41 41 40 40 40 40 40 39 39 39 39 39 41 43 44 44 44 42 41 40 40 41 41 42 43 43 43 43 43 43 42 41 39 39 39

ECMWFFLT1_500_spd_141.txt.gz
Wind_Speed
24 23 22 20 19 20 21 23 23 23 23 22 21 23 25 25 24 22 21 22 22 23 21 20 18 17 17 16 15 14 13 12 11 10 9 8 7 6 5 4 2 1 0 1 1 1 2 2 4 5 5 6 6 6 6 6 7 7 7 7 7 6 6
27 25 24 22 21 21 22 24 24 24 24 23 22 22 24 26 26 25 23 23 23 23 22 21 19 18 17 17 16 15 14 13 12 11 10 9 7 6 5 4 3 3 2 1 1 1 1 2 3 4 5 6 6 6 6 6 6 6 6 6 6 6 6
27 27 25 23 22 22 24 24 25 25 25 24 23 23 24 26 27 26 25 24 24 23 23 22 21 19 18 17 16 15 15 14 13 12 11 9 8 7 6 6 5 4 4 2 2 2 2 2 3 5 5 6 6 6 6 6 6 6 6 5 5 5 5
28 27 27 26 26 26 26 26 26 25 25 25 25 24 24 25 26 27 27 26 24 24 23 23 21 20 19 18 16 15 14 14 13 12 11 10 9 9 8 7 7 6 5 4 3 3 3 3 3 5 6 6 6 6 6 6 6 6 5 5 5 4 4
29 29 29 29 29 28 27 27 27 26 25 25 26 25 24 24 25 26 26 26 25 24 23 22 21 20 19 18 17 16 15 14 13 12 12 11 11 11 10 9 9 8 7 6 5 4 4 4 4 5 6 6 6 6 6 6 6 6 5 5 4 4 4
32 29 29 30 29 28 27 27 27 27 26 26 27 27 26 24 24 24 25 25 25 24 23 22 21 20 19 18 18 17 17 16 15 14 14 13 13 12 12 11 11 10 9 8 7 6 5 5 5 6 6 6 6 6 6 6 6 5 5 5 4 4 4
35 29 28 30 29 28 28 28 28 28 28 27 27 27 27 26 25 24 24 24 24 24 23 23 23 22 21 20 19 19 18 18 17 16 16 15 15 14 13 13 12 11 10 9 8 8 7 7 7 7 7 7 7 6 6 6 5 5 5 4 4 4 4
36 30 29 31 30 30 29 28 29 29 29 28 27 26 26 26 26 24 24 24 23 23 23 23 24 24 23 22 22 21 20 19 19 18 17 17 17 16 15 14 13 12 11 10 9 9 9 8 8 8 8 8 7 7 7 6 6 5 5 5 5 5 5
37 32 29 31 32 31 30 29 29 30 29 28 27 26 26 26 26 25 25 24 23 23 23 23 24 24 24 24 23 22 21 20 20 19 19 18 17 16 16 15 14 13 12 11 11 10 10 10 10 10 9 9 9 8 8 8 7 7 7 6 6 6 7
39 35 31 32 33 33 32 31 30 30 29 28 28 27 27 26 26 26 25 25 24 24 23 23 23 23 23 24 23 22 21 21 20 19 19 18 18 17 16 15 14 14 13 12 12 12 11 11 11 12 11 11 11 10 10 10 9 9 9 8 8 8 8
38 39 35 33 34 34 34 32 31 30 29 28 28 28 27 27 26 26 25 25 26 25 25 24 24 23 23 23 23 22 21 21 20 20 20 19 19 18 17 17 16 16 15 14 13 13 12 12 13 13 13 13 12 12 12 12 11 11 11 10 10 10 10
34 41 38 35 35 35 34 33 31 30 29 28 28 29 29 28 27 27 26 26 27 27 26 26 25 24 24 24 23 22 21 21 21 22 22 21 21 20 19 18 18 17 16 15 14 13 13 13 13 14 14 14 14 14 14 14 14 13 13 12 12 12 11
30 40 42 38 37 36 35 34 32 30 29 29 29 29 30 29 29 28 27 27 27 27 27 27 26 26 25 25 24 23 23 22 23 23 23 23 22 21 20 20 19 19 18 16 15 15 14 14 14 14 14 14 15 15 15 16 16 15 15 15 14 14 13
27 39 44 40 38 37 36 34 32 30 29 29 29 29 30 30 29 29 28 28 28 28 27 27 27 27 27 26 26 25 25 24 24 24 23 23 22 22 21 21 20 20 19 18 17 17 16 15 15 15 15 15 16 16 17 17 18 18 17 16 16 16 16
27 37 44 42 39 38 37 35 33 31 30 29 29 29 29 30 29 29 28 28 28 28 27 27 28 28 28 28 28 28 27 27 26 25 24 23 22 22 21 21 21 21 20 19 19 19 18 18 17 17 17 17 17 18 18 19 20 20 19 19 18 18 18
28 37 44 43 40 39 37 35 33 32 30 29 29 29 30 30 29 29 29 29 28 28 28 27 28 28 29 29 30 30 29 28 27 26 25 24 23 23 22 21 21 21 21 21 20 20 20 19 19 19 19 19 20 20 21 21 22 22 21 21 20 20 20
28 39 46 44 41 39 37 34 33 31 31 30 30 30 31 30 30 30 30 29 29 29 29 28 27 27 28 29 30 30 30 29 28 27 26 26 25 25 24 23 23 22 22 22 22 22 22 21 21 21 21 21 21 22 22 22 23 23 23 22 22 22 23
28 40 46 43 41 41 38 34 33 32 32 32 32 32 32 32 32 31 30 30 30 30 30 29 28 27 27 28 29 30 30 30 29 29 28 28 28 27 27 26 25 25 24 24 24 24 24 23 23 23 23 23 23 23 23 23 23 23 23 23 23 23 23
26 40 47 45 42 41 38 33 32 32 32 32 32 32 32 33 33 32 32 33 33 32 32 30 29 28 28 28 30 30 31 32 31 30 30 30 30 30 29 29 28 28 27 27 27 26 26 26 26 25 25 25 24 23 23 23 24 23 23 24 24 23 23
18 31 40 39 36 36 35 33 33 33 34 35 35 35 34 34 33 32 33 34 34 33 33 31 31 31 30 30 31 31 32 32 32 32 32 31 31 31 30 30 31 31 30 30 29 29 28 29 28 28 27 26 25 25 24 25 25 25 25 25 25 25 25
8 15 22 23 22 24 28 31 34 35 35 37 37 37 36 35 34 33 33 34 34 33 33 33 32 32 31 31 31 31 32 32 32 32 31 31 32 32 31 31 32 33 33 32 31 30 31 31 31 30 30 29 28 28 28 28 28 28 27 27 27 27 27
6 6 8 9 11 15 19 25 31 35 37 38 37 37 37 36 36 35 34 34 34 33 34 34 33 32 32 31 31 31 32 32 32 31 31 31 32 33 32 32 32 33 34 34 34 32 32 32 31 31 31 31 31 31 31 30 30 30 30 30 30 30 29
6 5 5 5 6 9 12 17 22 28 34 37 37 36 38 40 40 38 37 37 36 34 34 34 33 33 33 32 31 32 32 32 32 33 33 31 31 32 33 33 32 32 33 34 33 33 33 33 32 32 32 32 32 32 32 31 31 32 32 32 32 32 31
9 7 6 7 8 9 9 11 15 19 24 31 35 35 36 40 44 44 43 42 41 39 37 36 36 36 36 34 33 34 33 32 33 35 35 34 33 32 33 33 32 32 33 32 31 30 32 34 34 33 32 32 32 32 32 31 31 32 32 33 33 33 32
12 9 7 7 8 10 10 10 11 13 16 22 32 37 36 37 43 48 48 46 44 43 40 38 37 37 37 36 35 36 36 34 36 37 36 36 37 36 35 34 34 34 33 31 29 30 32 33 33 33 32 33 33 33 32 32 31 32 33 33 34 34 34
14 13 11 10 9 10 11 11 11 12 12 13 20 26 28 30 37 46 49 47 45 44 43 41 39 39 39 38 37 39 39 37 39 40 39 38 40 40 39 38 36 35 35 32 31 32 33 34 34 34 34 34 35 34 33 32 31 31 32 33 35 36 35
16 17 16 15 13 12 12 13 13 13 12 10 11 12 13 16 24 35 43 45 45 45 45 44 42 42 42 41 42 44 43 41 42 43 42 42 43 43 42 41 38 37 37 35 34 35 35 35 36 36 36 37 37 37 36 34 32 31 32 34 36 37 38
16 18 18 18 17 15 14 14 14 14 12 11 10 9 7 7 12 20 27 31 33 35 39 42 44 45 44 44 46 48 47 46 46 46 45 44 43 42 43 43 40 39 39 39 38 38 37 37 38 38 38 39 39 39 38 35 33 33 35 35 35 36 38
16 16 17 17 18 18 17 17 17 17 15 14 13 11 9 7 8 11 15 18 18 19 22 26 31 36 40 42 46 48 49 49 49 48 47 47 44 42 43 43 42 41 41 41 41 40 40 39 40 40 40 40 39 39 38 36 35 34 32 30 30 33 36
16 15 15 15 16 17 18 18 18 18 18 17 17 15 13 10 8 8 10 13 14 14 15 15 15 18 21 26 32 36 41 48 53 52 50 47 43 39 38 39 40 41 41 41 41 40 39 38 39 39 39 40 40 40 39 38 35 32 27 24 26 30 32
15 15 15 15 15 15 16 17 18 19 19 19 19 18 17 15 11 9 11 12 12 12 13 12 12 11 11 13 16 17 21 30 41 48 48 46 42 37 35 36 38 38 38 37 35 33 31 31 31 31 32 35 38 39 39 37 33 29 26 26 27 30 31
13 13 13 14 15 15 15 16 17 18 19 19 18 17 18 19 19 18 17 17 17 17 17 17 17 16 16 15 15 14 12 13 19 27 33 34 33 30 29 30 30 30 29 28 26 25 24 24 24 23 24 27 29 32 34 33 29 27 27 29 31 32 33
15 14 13 14 14 15 15 16 16 16 17 18 17 16 17 19 21 21 20 20 21 21 21 21 21 20 18 19 20 18 16 15 15 17 20 22 22 22 22 22 22 22 22 22 22 23 23 23 23 24 26 27 28 28 29 29 28 27 28 30 32 33 34
20 18 17 16 16 16 16 16 16 16 16 17 17 16 16 17 19 20 20 20 20 19 19 20 20 19 19 20 20 19 18 19 20 21 22 23 24 24 24 24 24 24 24 24 24 24 24 24 23 24 26 27 28 28 28 28 29 30 30 31 32 33 34
24 23 21 19 18 18 18 18 18 18 17 17 17 17 17 17 18 19 19 19 19 20 20 20 20 20 20 20 20 20 20 20 21 22 23 23 23 24 24 24 24 24 25 24 24 24 24 23 24 24 25 24 26 27 28 30 32 33 33 33 33 33 34
24 24 23 22 20 19 19 19 20 20 20 20 19 19 18 19 19 19 20 20 20 21 22 21 21 22 22 22 22 22 22 22 23 23 23 23 23 24 24 24 24 24 24 24 25 25 25 25 25 26 26 26 27 29 30 32 34 35 35 35 35 34 35
22 23 23 23 22 21 20 19 20 21 21 22 22 21 21 21 21 21 21 21 21 22 23 24 24 24 24 24 24 24 24 25 25 25 26 26 26 26 26 27 27 27 27 27 28 28 28 29 29 30 30 30 31 32 33 34 36 37 38 38 37 37 38
22 22 22 22 22 22 21 20 20 20 21 22 23 24 24 24 24 23 23 23 23 23 24 25 25 26 26 26 26 26 26 27 27 28 28 29 29 30 30 30 31 31 31 31 32 32 33 33 34 34 34 35 35 35 36 37 38 39 40 41 41 41 42

ECMWFFLT1_500_spd_144.txt.gz
Wind_Speed
25 25 25 23 21 19 18 18 18 18 18 20 22 22 20 20 21 23 24 24 24 23 23 22 21 20 20 19 18 17 15 14 12 11 10 9 8 7 6 5 4 5 5 5 5 5 5 5 5 5 5 5 5 5 5 5 5 5 5 5 5 5 5
27 26 26 24 22 20 19 19 19 19 19 19 22 23 22 21 22 23 25 25 24 24 23 22 21 20 20 19 18 17 15 14 12 11 9 8 7 6 5 4 3 3 4 4 4 4 4 4 5 5 5 5 5 5 5 5 5 5 5 5 5 5 5
28 28 27 25 24 22 21 20 20 20 20 19 21 23 23 23 22 23 24 25 25 24 23 22 21 20 19 19 17 16 15 14 12 11 9 8 7 6 4 3 2 2 2 2 2 2 3 3 4 5 5 5 5 5 5 5 5 5 5 5 6 6 6
27 28 28 27 26 25 23 21 21 21 21 21 21 23 24 24 23 22 23 24 25 24 23 22 21 20 19 18 17 16 15 13 12 11 10 9 8 7 6 4 3 2 1 1 1 2 3 3 4 5 6 6 6 6 6 6 6 6 6 6 6 6 6
28 28 29 29 28 27 25 23 22 22 22 23 22 22 24 24 23 23 22 23 24 24 23 21 20 20 19 18 17 16 15 14 13 12 11 10 9 8 7 6 5 4 3 3 2 2 3 4 5 6 7 7 8 7 7 7 7 7 7 6 6 6 6
30 28 29 30 29 27 26 24 23 23 23 24 24 23 23 24 24 24 23 23 24 23 23 23 22 21 20 19 18 18 17 16 15 14 13 12 11 10 9 8 8 6 5 5 4 4 4 4 5 7 8 9 9 9 9 8 8 8 8 7 7 7 6
33 29 28 29 29 28 28 26 25 25 25 25 25 24 23 24 25 25 25 24 24 24 24 24 24 23 22 21 21 20 19 18 17 16 15 14 13 12 11 10 10 8 7 7 6 5 5 5 6 7 9 10 10 10 10 10 10 9 9 9 8 8 7
36 33 30 29 30 29 29 29 27 27 27 26 25 25 24 23 24 25 27 27 26 26 26 26 26 25 24 23 23 22 21 20 19 18 17 16 15 14 13 12 11 10 9 8 8 7 7 7 7 8 9 10 11 11 11 11 11 11 10 9 9 9 8
39 37 34 31 32 31 29 30 29 27 27 27 26 25 25 24 24 25 26 27 27 27 27 27 27 26 25 25 24 23 22 21 20 19 19 18 17 16 15 14 13 12 11 10 10 9 9 8 8 8 10 11 11 12 12 12 12 11 11 11 10 10 9
41 38 36 34 34 33 31 30 31 29 28 28 27 27 26 25 25 25 25 26 27 28 28 28 27 27 26 26 25 24 23 23 22 21 21 20 19 18 17 16 15 14 13 12 11 10 10 10 10 10 10 11 12 12 12 12 12 12 12 11 11 11 10
43 39 37 36 34 33 33 32 31 30 28 28 28 27 27 26 26 25 25 26 26 27 27 27 27 27 27 26 25 25 24 24 23 23 22 21 20 19 18 17 16 15 14 13 12 12 11 11 11 11 11 12 12 13 13 13 13 13 13 12 12 12 11
43 42 38 36 33 32 34 33 32 31 30 29 28 28 28 28 27 26 26 26 26 25 25 26 26 26 26 25 25 25 24 24 24 24 23 22 21 20 19 18 17 15 15 14 14 13 13 13 13 13 13 13 13 14 14 14 14 14 14 13 13 13 12
37 43 41 36 33 32 34 34 34 33 32 31 30 29 29 29 28 28 27 27 26 26 25 25 25 25 25 24 24 24 24 24 23 23 23 22 21 20 19 18 18 17 17 16 16 16 15 15 14 14 14 14 15 15 15 15 16 16 16 15 15 15 14
26 35 40 38 35 34 35 36 36 35 34 33 32 31 31 30 30 29 28 27 26 26 26 26 26 26 25 24 24 24 23 23 23 23 22 22 21 20 20 20 19 19 19 18 18 18 18 17 16 16 16 16 16 17 17 18 18 18 18 17 17 17 16
21 25 32 38 41 38 37 37 37 36 36 35 34 33 32 31 30 30 29 28 27 27 27 26 26 26 26 25 25 24 24 24 24 24 23 23 23 22 21 21 21 21 20 20 20 20 19 19 18 18 18 17 18 18 19 19 19 19 19 18 18 18 18
23 23 25 32 41 43 40 39 38 38 38 37 36 34 32 31 30 30 29 29 29 29 28 28 27 27 26 26 26 26 26 25 25 25 25 25 24 24 23 22 21 21 21 21 21 21 21 21 21 20 20 19 19 19 19 20 19 19 19 20 20 20 19
23 26 25 27 36 43 43 40 38 37 37 37 36 35 33 33 32 31 30 31 31 30 30 30 29 28 28 28 28 28 27 26 26 26 26 26 26 25 24 23 22 22 21 21 21 21 22 22 22 22 22 21 21 20 20 20 19 19 21 22 22 22 22
21 25 27 28 32 40 44 42 39 37 36 36 35 34 34 34 34 33 32 32 32 31 31 31 30 30 30 30 31 30 29 28 28 27 27 27 27 27 26 25 24 23 23 23 23 23 23 23 23 23 23 23 22 21 21 20 19 20 23 23 21 22 23
19 23 27 29 31 38 44 43 39 36 35 34 34 34 34 34 35 35 35 34 33 32 31 32 31 31 31 32 32 31 30 30 30 29 29 29 28 28 28 27 26 26 26 26 25 25 25 25 24 24 25 24 24 23 23 22 21 23 25 24 23 23 23
17 24 29 32 34 40 46 44 39 38 37 35 35 35 34 34 35 35 36 36 35 34 34 34 33 32 32 33 33 32 31 32 32 32 31 31 31 31 30 30 29 29 28 28 28 28 27 27 27 26 26 26 25 25 24 23 24 25 26 25 25 25 24
11 20 30 37 41 45 47 43 40 41 39 36 35 34 34 35 35 36 36 37 36 36 35 35 35 34 34 34 34 33 33 33 33 33 33 32 32 32 32 32 32 31 31 31 31 31 30 30 29 28 28 28 28 27 26 26 27 28 27 26 26 26 26
7 12 23 37 47 50 48 44 41 41 41 39 38 37 36 36 36 36 36 36 37 37 37 37 36 36 36 35 35 34 33 33 33 33 33 33 32 32 33 33 33 33 33 32 32 32 32 32 32 31 31 31 31 31 30 29 30 31 30 29 29 28 29
7 7 13 30 49 52 46 43 43 42 41 41 40 40 39 37 36 35 35 36 37 37 37 38 37 37 36 36 35 34 33 33 33 33 34 34 33 33 33 33 34 33 33 33 33 33 32 33 34 34 34 34 33 32 32 31 33 34 33 33 32 32 32
9 7 5 17 38 46 41 37 40 41 41 40 39 39 39 37 35 35 35 35 36 37 37 38 38 37 36 35 35 34 34 34 34 34 34 34 33 33 34 34 33 33 33 34 34 34 34 34 35 35 35 35 34 34 33 32 34 35 35 35 34 34 34
9 9 6 6 18 27 25 23 27 31 34 36 37 38 38 37 36 35 36 36 36 37 38 39 39 37 36 35 35 34 34 35 35 34 35 35 33 32 32 32 33 34 34 35 35 34 34 35 35 34 34 35 36 35 34 33 34 35 35 35 35 35 35
10 10 10 8 8 11 12 12 14 15 17 21 25 28 33 36 36 36 36 36 37 38 39 39 39 38 37 37 38 37 36 36 36 35 36 36 36 34 32 33 34 35 35 36 37 36 35 36 36 35 34 35 35 35 33 33 33 34 33 34 34 35 35
10 11 11 11 10 9 9 9 9 8 8 10 14 18 23 28 33 36 38 38 39 40 42 43 42 41 40 40 41 40 39 38 38 36 36 38 39 37 35 36 38 39 39 39 39 39 39 38 38 36 36 35 35 35 34 33 33 33 33 33 34 35 36
8 11 13 13 12 11 11 10 9 7 6 7 9 11 14 18 23 29 35 38 40 41 43 46 46 44 42 43 44 43 42 41 40 39 40 42 43 41 39 39 40 42 43 43 41 41 42 41 41 40 39 38 37 37 36 35 35 34 35 35 35 37 38
9 9 11 12 12 12 12 12 11 11 10 9 10 10 12 14 15 16 20 25 30 35 38 42 46 47 45 44 44 43 43 43 42 41 43 44 44 44 43 44 45 46 46 44 42 42 43 43 43 42 41 41 40 39 39 39 38 38 39 38 38 38 39
11 11 10 10 10 10 10 11 12 12 12 13 13 13 13 14 14 12 10 10 13 18 22 26 33 40 43 42 40 41 43 45 47 48 49 49 49 48 48 48 48 47 46 44 43 43 43 44 43 44 44 43 42 41 41 41 42 42 43 41 39 39 39
11 10 10 9 9 9 9 10 11 12 12 13 14 15 15 16 16 15 12 8 6 6 9 12 15 20 25 26 25 24 26 30 35 39 41 42 44 47 49 50 50 50 48 47 46 45 45 44 44 44 45 44 43 43 43 43 44 45 45 43 41 40 40
8 8 8 8 8 8 8 9 9 10 11 12 12 14 15 15 16 15 14 13 11 10 10 12 11 9 10 10 10 10 10 12 15 18 20 21 22 26 32 38 43 48 52 51 49 48 46 44 42 42 43 44 44 43 41 39 38 37 38 38 38 39 39
8 8 8 8 8 8 8 8 8 9 9 10 10 12 13 14 16 16 16 16 16 13 12 12 13 13 13 12 11 11 11 11 12 13 14 15 15 14 15 18 23 30 37 39 39 38 36 34 33 33 35 36 35 32 30 29 28 27 28 29 30 32 34
9 9 10 10 11 11 10 10 9 9 9 9 10 10 11 13 16 18 18 17 17 17 17 16 16 17 16 14 14 14 14 14 15 15 16 17 18 17 15 13 14 18 21 22 23 22 21 22 22 22 23 24 23 22 24 25 25 25 26 25 25 26 27
11 11 12 12 13 13 13 13 12 12 12 11 11 11 11 12 14 16 17 17 17 18 21 22 22 21 19 17 16 16 17 18 18 17 16 17 18 20 19 16 17 21 23 24 23 22 21 22 22 20 22 24 23 23 24 25 26 26 26 26 26 26 25
15 14 14 14 14 15 15 15 15 14 14 14 13 13 13 13 13 14 15 16 16 17 19 20 20 20 19 18 17 17 16 17 17 17 17 18 19 21 22 22 23 26 27 27 26 26 25 25 25 24 25 25 26 26 26 26 26 27 27 27 28 29 29
17 17 16 16 16 16 16 17 16 16 16 15 15 15 15 15 16 16 16 16 16 17 18 18 19 19 19 18 18 18 17 18 18 19 19 20 20 21 22 23 24 25 26 26 26 26 26 26 26 26 26 26 27 28 28 28 28 28 29 30 31 32 33
19 19 18 18 17 17 17 17 18 18 17 17 17 17 17 18 18 18 18 18 18 18 18 19 20 20 20 20 19 19 19 20 20 21 21 22 22 23 24 24 25 25 26 27 27 28 28 28 28 28 29 29 29 29 30 31 31 32 33 34 35 36 37